Weather in Ivanivka

Ukraine / Kirovohrad Region     48°26′12″N   32°08′05″E
temp.,
°C
wind,
m/s
gust,
m/s
humid.,
%
clouds,
%
prec.,
mm/h
press.,
hPa
HPBL,
m
18 january, tue
tue1823:000nw71289100 1.3 1000921
02:00−2wnw81477100 1.3 1002817
05:00−2w61395100 0.1 1001732
08:00−4nnw111785100 1.4 10071283
11:00−4nw10158199 0.2 10101416
14:00−3nnw9136998 0.3 10121423
17:00−4nnw81471100 0.0 10141075
20:00−4nnw81479100 0.1 10161161
19 january, wed
wed1923:00−5nnw91484100 0.1 10191135
02:00−6nnw81487100 0.2 1021951
05:00−6nnw81487100 0.1 1022785
08:00−7nnw71486100 0.1 1024631
11:00−5n7107683 0.0 1025633
14:00−4nnw687014 0.0 1024665
17:00−6nw25865 0.0 102492
20:00−7wnw24885 0.0 102360
20 january, thu
thu2023:00
02:00−7ssw34899 0.0 102161
05:00−8ssw379017 0.0 1019135
08:00
11:00−3s6116997 0.0 1017410
14:00−1s6137170 0.0 1014639
17:00−2sse6148094 0.0 1012379
20:00−3s61487100 0.0 1010384
21 january, fri
fri2123:00−2s51093100 0.0 1009298
02:00−4sw389092 0.0 1009153
05:00−4sw3791100 0.0 1008124
08:00−3wnw61193100 0.4 1009549
11:00−1w7117815 0.0 1011719
14:00−1w7117017 0.0 10111017
17:00−3wsw510805 0.0 1012287
20:00−4w512835 0.0 1013345
22 january, sat
sat2223:00−5wsw4108827 0.0 1014272
02:00−6wsw4109032 0.0 1014293
05:00−6wsw41092100 0.0 1013273
08:00−6wsw3991100 0.0 1015260
11:00−3wsw467787 0.0 1016480
14:00−2w5671100 0.0 1015911
17:00−3wsw2483100 0.1 1017105
20:00−4sw2481100 0.1 101981